Year,Month,Day,Hour,Minute,Value (Times are PST for temperature in C)
2019,02,06,00,00,-4.80
2019,02,06,00,01,-4.80
2019,02,06,00,02,-4.80
2019,02,06,00,03,-4.80
2019,02,06,00,04,-4.70
2019,02,06,00,05,-4.70
2019,02,06,00,06,-4.70
2019,02,06,00,07,-4.70
2019,02,06,00,08,-4.70
2019,02,06,00,09,-4.70
2019,02,06,00,10,-4.70
2019,02,06,00,11,-4.70
2019,02,06,00,12,-4.70
2019,02,06,00,13,-4.70
2019,02,06,00,14,-4.70
2019,02,06,00,15,-4.70
2019,02,06,00,16,-4.70
2019,02,06,00,17,-4.70
2019,02,06,00,18,-4.80
2019,02,06,00,19,-4.80
2019,02,06,00,20,-4.80
2019,02,06,00,21,-4.80
2019,02,06,00,22,-4.80
2019,02,06,00,23,-4.80
2019,02,06,00,24,-4.80
2019,02,06,00,25,-4.80
2019,02,06,00,26,-4.80
2019,02,06,00,27,-4.80
2019,02,06,00,28,-4.80
2019,02,06,00,29,-4.80
2019,02,06,00,30,-4.80
2019,02,06,00,31,-4.80
2019,02,06,00,32,-4.80
2019,02,06,00,33,-4.80
2019,02,06,00,34,-4.80
2019,02,06,00,35,-4.80
2019,02,06,00,36,-4.80
2019,02,06,00,37,-4.80
2019,02,06,00,38,-4.80
2019,02,06,00,39,-4.90
2019,02,06,00,40,-4.90
2019,02,06,00,41,-4.90
2019,02,06,00,42,-4.90
2019,02,06,00,43,-4.90
2019,02,06,00,44,-5.00
2019,02,06,00,45,-5.00
2019,02,06,00,46,-5.00
2019,02,06,00,47,-5.00
2019,02,06,00,48,-5.00
2019,02,06,00,49,-5.00
2019,02,06,00,50,-4.90
2019,02,06,00,51,-4.90
2019,02,06,00,52,-4.80
2019,02,06,00,53,-4.80
2019,02,06,00,54,-4.80
2019,02,06,00,55,-4.80
2019,02,06,00,56,-4.80
2019,02,06,00,57,-4.80
2019,02,06,00,58,-4.80
2019,02,06,00,59,-4.80
2019,02,06,01,00,-4.80
2019,02,06,01,01,-4.90
2019,02,06,01,02,-4.90
2019,02,06,01,03,-5.00
2019,02,06,01,04,-5.00
2019,02,06,01,05,-5.00
2019,02,06,01,06,-5.00
2019,02,06,01,07,-5.10
2019,02,06,01,08,-5.10
2019,02,06,01,09,-5.10
2019,02,06,01,10,-5.10
2019,02,06,01,11,-5.10
2019,02,06,01,12,-5.10
2019,02,06,01,13,-5.20
2019,02,06,01,14,-5.20
2019,02,06,01,15,-5.20
2019,02,06,01,16,-5.20
2019,02,06,01,17,-5.20
2019,02,06,01,18,-5.20
2019,02,06,01,19,-5.20
2019,02,06,01,20,-5.20
2019,02,06,01,21,-5.20
2019,02,06,01,22,-5.20
2019,02,06,01,23,-5.30
2019,02,06,01,24,-5.30
2019,02,06,01,25,-5.30
2019,02,06,01,26,-5.30
2019,02,06,01,27,-5.30
2019,02,06,01,28,-5.40
2019,02,06,01,29,-5.40
2019,02,06,01,30,-5.40
2019,02,06,01,31,-5.40
2019,02,06,01,32,-5.40
2019,02,06,01,33,-5.40
2019,02,06,01,34,-5.30
2019,02,06,01,35,-5.30
2019,02,06,01,36,-5.40
2019,02,06,01,37,-5.40
2019,02,06,01,38,-5.40
2019,02,06,01,39,-5.40
2019,02,06,01,40,-5.40
2019,02,06,01,41,-5.50
2019,02,06,01,42,-5.50
2019,02,06,01,43,-5.50
2019,02,06,01,44,-5.60
2019,02,06,01,45,-5.60
2019,02,06,01,46,-5.60
2019,02,06,01,47,-5.60
2019,02,06,01,48,-5.60
2019,02,06,01,49,-5.60
2019,02,06,01,50,-5.60
2019,02,06,01,51,-5.60
2019,02,06,01,52,-5.60
2019,02,06,01,53,-5.60
2019,02,06,01,54,-5.60
2019,02,06,01,55,-5.60
2019,02,06,01,56,-5.60
2019,02,06,01,57,-5.70
2019,02,06,01,58,-5.70
2019,02,06,01,59,-5.60
2019,02,06,02,00,-5.70
2019,02,06,02,01,-5.70
2019,02,06,02,02,-5.70
2019,02,06,02,03,-5.70
2019,02,06,02,04,-5.70
2019,02,06,02,05,-5.70
2019,02,06,02,06,-5.70
2019,02,06,02,07,-5.70
2019,02,06,02,08,-5.70
2019,02,06,02,09,-5.70
2019,02,06,02,10,-5.70
2019,02,06,02,11,-5.70
2019,02,06,02,12,-5.70
2019,02,06,02,13,-5.70
2019,02,06,02,14,-5.70
2019,02,06,02,15,-5.70
2019,02,06,02,16,-5.70
2019,02,06,02,17,-5.70
2019,02,06,02,18,-5.70
2019,02,06,02,19,-5.70
2019,02,06,02,20,-5.70
2019,02,06,02,21,-5.70
2019,02,06,02,22,-5.60
2019,02,06,02,23,-5.60
2019,02,06,02,24,-5.70
2019,02,06,02,25,-5.60
2019,02,06,02,26,-5.60
2019,02,06,02,27,-5.60
2019,02,06,02,28,-5.60
2019,02,06,02,29,-5.60
2019,02,06,02,30,-5.60
2019,02,06,02,31,-5.60
2019,02,06,02,32,-5.60
2019,02,06,02,33,-5.70
2019,02,06,02,34,-5.70
2019,02,06,02,35,-5.70
2019,02,06,02,36,-5.70
2019,02,06,02,37,-5.70
2019,02,06,02,38,-5.70
2019,02,06,02,39,-5.70
2019,02,06,02,40,-5.70
2019,02,06,02,41,-5.70
2019,02,06,02,42,-5.70
2019,02,06,02,43,-5.80
2019,02,06,02,44,-5.80
2019,02,06,02,45,-5.80
2019,02,06,02,46,-5.80
2019,02,06,02,47,-5.80
2019,02,06,02,48,-5.80
2019,02,06,02,49,-5.80
2019,02,06,02,50,-5.80
2019,02,06,02,51,-5.80
2019,02,06,02,52,-5.80
2019,02,06,02,53,-5.80
2019,02,06,02,54,-5.80
2019,02,06,02,55,-5.80
2019,02,06,02,56,-5.80
2019,02,06,02,57,-5.80
2019,02,06,02,58,-5.80
2019,02,06,02,59,-5.80
2019,02,06,03,00,-5.80
2019,02,06,03,01,-5.80
2019,02,06,03,02,-5.90
2019,02,06,03,03,-5.90
2019,02,06,03,04,-5.90
2019,02,06,03,05,-5.90
2019,02,06,03,06,-5.90
2019,02,06,03,07,-6.00
2019,02,06,03,08,-6.00
2019,02,06,03,09,-6.00
2019,02,06,03,10,-6.00
2019,02,06,03,11,-6.00
2019,02,06,03,12,-6.00
2019,02,06,03,13,-5.90
2019,02,06,03,14,-5.90
2019,02,06,03,15,-5.90
2019,02,06,03,16,-5.90
2019,02,06,03,17,-5.90
2019,02,06,03,18,-5.90
2019,02,06,03,19,-5.90
2019,02,06,03,20,-5.90
2019,02,06,03,21,-5.90
2019,02,06,03,22,-5.90
2019,02,06,03,23,-5.90
2019,02,06,03,24,-5.90
2019,02,06,03,25,-5.90
2019,02,06,03,26,-5.90
2019,02,06,03,27,-5.90
2019,02,06,03,28,-5.90
2019,02,06,03,29,-5.90
2019,02,06,03,30,-5.80
2019,02,06,03,31,-5.80
2019,02,06,03,32,-5.80
2019,02,06,03,33,-5.80
2019,02,06,03,34,-5.80
2019,02,06,03,35,-5.80
2019,02,06,03,36,-5.80
2019,02,06,03,37,-5.80
2019,02,06,03,38,-5.80
2019,02,06,03,39,-5.80
2019,02,06,03,40,-5.80
2019,02,06,03,41,-5.80
2019,02,06,03,42,-5.80
2019,02,06,03,43,-5.90
2019,02,06,03,44,-5.90
2019,02,06,03,45,-5.90
2019,02,06,03,46,-5.90
2019,02,06,03,47,-5.90
2019,02,06,03,48,-5.90
2019,02,06,03,49,-5.90
2019,02,06,03,50,-5.90
2019,02,06,03,51,-6.00
2019,02,06,03,52,-6.00
2019,02,06,03,53,-6.00
2019,02,06,03,54,-6.00
2019,02,06,03,55,-6.10
2019,02,06,03,56,-6.10
2019,02,06,03,57,-6.10
2019,02,06,03,58,-6.10
2019,02,06,03,59,-6.10
2019,02,06,04,00,-6.10
2019,02,06,04,01,-6.10
2019,02,06,04,02,-6.10
2019,02,06,04,03,-6.10
2019,02,06,04,04,-6.10
2019,02,06,04,05,-6.00
2019,02,06,04,06,-6.00
2019,02,06,04,07,-6.00
2019,02,06,04,08,-6.00
2019,02,06,04,09,-5.90
2019,02,06,04,10,-5.90
2019,02,06,04,11,-5.90
2019,02,06,04,12,-5.80
2019,02,06,04,13,-5.80
2019,02,06,04,14,-5.70
2019,02,06,04,15,-5.60
2019,02,06,04,16,-5.60
2019,02,06,04,17,-5.60
2019,02,06,04,18,-5.50
2019,02,06,04,19,-5.50
2019,02,06,04,20,-5.50
2019,02,06,04,21,-5.40
2019,02,06,04,22,-5.40
2019,02,06,04,23,-5.40
2019,02,06,04,24,-5.40
2019,02,06,04,25,-5.40
2019,02,06,04,26,-5.50
2019,02,06,04,27,-5.50
2019,02,06,04,28,-5.60
2019,02,06,04,29,-5.60
2019,02,06,04,30,-5.60
2019,02,06,04,31,-5.60
2019,02,06,04,32,-5.70
2019,02,06,04,33,-5.70
2019,02,06,04,34,-5.80
2019,02,06,04,35,-5.80
2019,02,06,04,36,-5.80
2019,02,06,04,37,-5.80
2019,02,06,04,38,-5.90
2019,02,06,04,39,-5.90
2019,02,06,04,40,-5.90
2019,02,06,04,41,-5.90
2019,02,06,04,42,-5.90
2019,02,06,04,43,-5.90
2019,02,06,04,44,-5.80
2019,02,06,04,45,-5.80
2019,02,06,04,46,-5.80
2019,02,06,04,47,-5.80
2019,02,06,04,48,-5.80
2019,02,06,04,49,-5.90
2019,02,06,04,50,-5.90
2019,02,06,04,51,-6.00
2019,02,06,04,52,-6.10
2019,02,06,04,53,-6.10
2019,02,06,04,54,-6.20
2019,02,06,04,55,-6.20
2019,02,06,04,56,-6.30
2019,02,06,04,57,-6.30
2019,02,06,04,58,-6.30
2019,02,06,04,59,-6.30
2019,02,06,05,00,-6.30
2019,02,06,05,01,-6.20
2019,02,06,05,02,-6.20
2019,02,06,05,03,-6.00
2019,02,06,05,04,-5.90
2019,02,06,05,05,-5.80
2019,02,06,05,06,-5.70
2019,02,06,05,07,-5.70
2019,02,06,05,08,-5.60
2019,02,06,05,09,-5.60
2019,02,06,05,10,-5.70
2019,02,06,05,11,-5.70
2019,02,06,05,12,-5.80
2019,02,06,05,13,-5.80
2019,02,06,05,14,-5.80
2019,02,06,05,15,-5.80
2019,02,06,05,16,-5.80
2019,02,06,05,17,-5.80
2019,02,06,05,18,-5.80
2019,02,06,05,19,-5.80
2019,02,06,05,20,-5.80
2019,02,06,05,21,-5.90
2019,02,06,05,22,-6.20
2019,02,06,05,23,-6.20
2019,02,06,05,24,-6.20
2019,02,06,05,25,-6.20
2019,02,06,05,26,-6.10
2019,02,06,05,27,-6.10
2019,02,06,05,28,-6.00
2019,02,06,05,29,-6.00
2019,02,06,05,30,-5.90
2019,02,06,05,31,-5.80
2019,02,06,05,32,-5.80
2019,02,06,05,33,-5.80
2019,02,06,05,34,-5.80
2019,02,06,05,35,-5.80
2019,02,06,05,36,-5.80
2019,02,06,05,37,-5.80
2019,02,06,05,38,-5.80
2019,02,06,05,39,-5.10
2019,02,06,05,40,-5.10
2019,02,06,05,41,-5.10
2019,02,06,05,42,-5.10
2019,02,06,05,43,-5.10
2019,02,06,05,44,-5.10
2019,02,06,05,45,-5.10
2019,02,06,05,46,-5.10
2019,02,06,05,47,-5.10
2019,02,06,05,48,-5.00
2019,02,06,05,49,-4.90
2019,02,06,05,50,-4.80
2019,02,06,05,51,-4.80
2019,02,06,05,52,-4.70
2019,02,06,05,53,-4.70
2019,02,06,05,54,-4.60
2019,02,06,05,55,-4.50
2019,02,06,05,56,-4.50
2019,02,06,05,57,-4.40
2019,02,06,05,58,-4.40
2019,02,06,05,59,-4.30
2019,02,06,06,00,-4.30
2019,02,06,06,01,-4.30
2019,02,06,06,02,-4.30
2019,02,06,06,03,-4.30
2019,02,06,06,04,-4.30
2019,02,06,06,05,-4.30
2019,02,06,06,06,-4.40
2019,02,06,06,07,-4.40
2019,02,06,06,08,-4.40
2019,02,06,06,09,-4.40
2019,02,06,06,10,-4.40
2019,02,06,06,11,-4.50
2019,02,06,06,12,-4.50
2019,02,06,06,13,-4.50
2019,02,06,06,14,-4.60
2019,02,06,06,15,-4.60
2019,02,06,06,16,-4.60
2019,02,06,06,17,-4.70
2019,02,06,06,18,-4.70
2019,02,06,06,19,-4.80
2019,02,06,06,20,-4.80
2019,02,06,06,21,-4.90
2019,02,06,06,22,-4.90
2019,02,06,06,23,-5.00
2019,02,06,06,24,-5.10
2019,02,06,06,25,-5.10
2019,02,06,06,26,-5.10
2019,02,06,06,27,-5.10
2019,02,06,06,28,-5.10
2019,02,06,06,29,-5.00
2019,02,06,06,30,-4.90
2019,02,06,06,31,-4.80
2019,02,06,06,32,-4.80
2019,02,06,06,33,-4.60
2019,02,06,06,34,-4.50
2019,02,06,06,35,-4.40
2019,02,06,06,36,-4.30
2019,02,06,06,37,-4.20
2019,02,06,06,38,-4.20
2019,02,06,06,39,-4.10
2019,02,06,06,40,-4.00
2019,02,06,06,41,-4.00
2019,02,06,06,42,-3.90
2019,02,06,06,43,-3.90
2019,02,06,06,44,-3.80
2019,02,06,06,45,-3.80
2019,02,06,06,46,-3.70
2019,02,06,06,47,-3.70
2019,02,06,06,48,-3.70
2019,02,06,06,49,-3.70
2019,02,06,06,50,-3.70
2019,02,06,06,51,-3.60
2019,02,06,06,52,-3.60
2019,02,06,06,53,-3.60
2019,02,06,06,54,-3.60
2019,02,06,06,55,-3.60
2019,02,06,06,56,-3.60
2019,02,06,06,57,-3.50
2019,02,06,06,58,-3.50
2019,02,06,06,59,-3.50
2019,02,06,07,00,-3.50
2019,02,06,07,01,-3.40
2019,02,06,07,02,-3.40
2019,02,06,07,03,-3.40
2019,02,06,07,04,-3.30
2019,02,06,07,05,-3.30
2019,02,06,07,06,-3.30
2019,02,06,07,07,-3.30
2019,02,06,07,08,-3.30
2019,02,06,07,09,-3.30
2019,02,06,07,10,-3.30
2019,02,06,07,11,-3.30
2019,02,06,07,12,-3.30
2019,02,06,07,13,-3.30
2019,02,06,07,14,-3.30
2019,02,06,07,15,-3.30
2019,02,06,07,16,-3.30
2019,02,06,07,17,-3.30
2019,02,06,07,18,-3.30
2019,02,06,07,19,-3.30
2019,02,06,07,20,-3.30
2019,02,06,07,21,-3.30
2019,02,06,07,22,-3.30
2019,02,06,07,23,-3.40
2019,02,06,07,24,-3.40
2019,02,06,07,25,-3.40
2019,02,06,07,26,-3.40
2019,02,06,07,27,-3.40
2019,02,06,07,28,-3.40
2019,02,06,07,29,-3.40
2019,02,06,07,30,-3.40
2019,02,06,07,31,-3.40
2019,02,06,07,32,-3.50
2019,02,06,07,33,-3.50
2019,02,06,07,34,-3.50
2019,02,06,07,35,-3.60
2019,02,06,07,36,-3.60
2019,02,06,07,37,-3.70
2019,02,06,07,38,-3.70
2019,02,06,07,39,-3.70
2019,02,06,07,40,-3.80
2019,02,06,07,41,-3.80
2019,02,06,07,42,-3.80
2019,02,06,07,43,-3.80
2019,02,06,07,44,-3.80
2019,02,06,07,45,-3.80
2019,02,06,07,46,-3.80
2019,02,06,07,47,-3.80
2019,02,06,07,48,-3.80
2019,02,06,07,49,-3.80
2019,02,06,07,50,-3.80
2019,02,06,07,51,-3.70
2019,02,06,07,52,-3.70
2019,02,06,07,53,-3.60
2019,02,06,07,54,-3.60
2019,02,06,07,55,-3.60
2019,02,06,07,56,-3.60
2019,02,06,07,57,-3.60
2019,02,06,07,58,-3.60
2019,02,06,07,59,-3.50
2019,02,06,08,00,-3.50
2019,02,06,08,01,-3.50
2019,02,06,08,02,-3.50
2019,02,06,08,03,-3.50
2019,02,06,08,04,-3.50
2019,02,06,08,05,-3.50
2019,02,06,08,06,-3.40
2019,02,06,08,07,-3.40
2019,02,06,08,08,-3.40
2019,02,06,08,09,-3.40
2019,02,06,08,10,-3.40
2019,02,06,08,11,-3.40
2019,02,06,08,12,-3.40
2019,02,06,08,13,-3.30
2019,02,06,08,14,-3.30
2019,02,06,08,15,-3.20
2019,02,06,08,16,-3.10
2019,02,06,08,17,-3.00
2019,02,06,08,18,-2.80
2019,02,06,08,19,-2.70
2019,02,06,08,20,-2.60
2019,02,06,08,21,-2.50
2019,02,06,08,22,-2.40
2019,02,06,08,23,-2.30
2019,02,06,08,24,-2.20
2019,02,06,08,25,-2.20
2019,02,06,08,26,-2.10
2019,02,06,08,27,-2.00
2019,02,06,08,28,-1.90
2019,02,06,08,29,-1.90
2019,02,06,08,30,-1.80
2019,02,06,08,31,-1.70
2019,02,06,08,32,-1.70
2019,02,06,08,33,-1.70
2019,02,06,08,34,-1.60
2019,02,06,08,35,-1.60
2019,02,06,08,36,-1.60
2019,02,06,08,37,-1.50
2019,02,06,08,38,-1.50
2019,02,06,08,39,-1.40
2019,02,06,08,40,-1.40
2019,02,06,08,41,-1.40
2019,02,06,08,42,-1.40
2019,02,06,08,43,-1.30
2019,02,06,08,44,-1.30
2019,02,06,08,45,-1.30
2019,02,06,08,46,-1.30
2019,02,06,08,47,-1.30
2019,02,06,08,48,-1.30
2019,02,06,08,49,-1.30
2019,02,06,08,50,-1.20
2019,02,06,08,51,-1.20
2019,02,06,08,52,-1.20
2019,02,06,08,53,-1.20
2019,02,06,08,54,-1.20
2019,02,06,08,55,-1.20
2019,02,06,08,56,-1.20
2019,02,06,08,57,-1.20
2019,02,06,08,58,-1.10
2019,02,06,08,59,-1.10
2019,02,06,09,00,-1.10
2019,02,06,09,01,-1.00
2019,02,06,09,02,-1.00
2019,02,06,09,03,-0.90
2019,02,06,09,04,-0.80
2019,02,06,09,05,-0.80
2019,02,06,09,06,-0.70
2019,02,06,09,07,-0.70
2019,02,06,09,08,-0.60
2019,02,06,09,09,-0.50
2019,02,06,09,10,-0.40
2019,02,06,09,11,-0.40
2019,02,06,09,12,-0.40
2019,02,06,09,13,-0.30
2019,02,06,09,14,-0.30
2019,02,06,09,15,-0.20
2019,02,06,09,16,-0.20
2019,02,06,09,17,-0.20
2019,02,06,09,18,-0.10
2019,02,06,09,19,-0.10
2019,02,06,09,20,-0.10
2019,02,06,09,21,0.00
2019,02,06,09,22,0.00
2019,02,06,09,23,0.10
2019,02,06,09,24,0.10
2019,02,06,09,25,0.10
2019,02,06,09,26,0.10
2019,02,06,09,27,0.10
2019,02,06,09,28,0.10
2019,02,06,09,29,0.10
2019,02,06,09,30,0.10
2019,02,06,09,31,0.00
2019,02,06,09,32,0.00
2019,02,06,09,33,0.00
2019,02,06,09,34,0.00
2019,02,06,09,35,0.00
2019,02,06,09,36,0.00
2019,02,06,09,37,0.10
2019,02,06,09,38,0.10
2019,02,06,09,39,0.10
2019,02,06,09,40,0.20
2019,02,06,09,41,0.20
2019,02,06,09,42,0.20
2019,02,06,09,43,0.20
2019,02,06,09,44,0.30
2019,02,06,09,45,0.30
2019,02,06,09,46,0.40
2019,02,06,09,47,0.40
2019,02,06,09,48,0.40
2019,02,06,09,49,0.40
2019,02,06,09,50,0.40
2019,02,06,09,51,0.40
2019,02,06,09,52,0.40
2019,02,06,09,53,0.40
2019,02,06,09,54,0.40
2019,02,06,09,55,0.40
2019,02,06,09,56,0.40
2019,02,06,09,57,0.40
2019,02,06,09,58,0.40
2019,02,06,09,59,0.40
2019,02,06,10,00,0.30
2019,02,06,10,01,0.30
2019,02,06,10,02,0.30
2019,02,06,10,03,0.30
2019,02,06,10,04,0.30
2019,02,06,10,05,0.30
2019,02,06,10,06,0.30
2019,02,06,10,07,0.30
2019,02,06,10,08,0.30
2019,02,06,10,09,0.30
2019,02,06,10,10,0.40
2019,02,06,10,11,0.50
2019,02,06,10,12,0.50
2019,02,06,10,13,0.50
2019,02,06,10,14,0.50
2019,02,06,10,15,0.50
2019,02,06,10,16,0.50
2019,02,06,10,17,0.50
2019,02,06,10,18,0.50
2019,02,06,10,19,0.60
2019,02,06,10,20,0.60
2019,02,06,10,21,0.60
2019,02,06,10,22,0.60
2019,02,06,10,23,0.60
2019,02,06,10,24,0.60
2019,02,06,10,25,0.60
2019,02,06,10,26,0.60
2019,02,06,10,27,0.60
2019,02,06,10,28,0.60
2019,02,06,10,29,0.60
2019,02,06,10,30,0.60
2019,02,06,10,31,0.60
2019,02,06,10,32,0.60
2019,02,06,10,33,0.70
2019,02,06,10,34,0.70
2019,02,06,10,35,0.70
2019,02,06,10,36,0.70
2019,02,06,10,37,0.70
2019,02,06,10,38,0.70
2019,02,06,10,39,0.70
2019,02,06,10,40,0.80
2019,02,06,10,41,0.80
2019,02,06,10,42,0.80
2019,02,06,10,43,0.90
2019,02,06,10,44,0.90
2019,02,06,10,45,0.90
2019,02,06,10,46,0.90
2019,02,06,10,47,0.90
2019,02,06,10,48,0.90
2019,02,06,10,49,0.90
2019,02,06,10,50,0.90
2019,02,06,10,51,0.90
2019,02,06,10,52,0.90
2019,02,06,10,53,0.90
2019,02,06,10,54,0.90
2019,02,06,10,55,0.90
2019,02,06,10,56,0.90
2019,02,06,10,57,0.80
2019,02,06,10,58,0.80
2019,02,06,10,59,0.80
2019,02,06,11,00,0.80
2019,02,06,11,01,0.80
2019,02,06,11,02,0.80
2019,02,06,11,03,0.90
2019,02,06,11,04,0.90
2019,02,06,11,05,1.00
2019,02,06,11,06,1.10
2019,02,06,11,07,1.10
2019,02,06,11,08,1.20
2019,02,06,11,09,1.20
2019,02,06,11,10,1.20
2019,02,06,11,11,1.20
2019,02,06,11,12,1.30
2019,02,06,11,13,1.20
2019,02,06,11,14,1.20
2019,02,06,11,15,1.20
2019,02,06,11,16,1.20
2019,02,06,11,17,1.20
2019,02,06,11,18,1.20
2019,02,06,11,19,1.20
2019,02,06,11,20,1.30
2019,02,06,11,21,1.30
2019,02,06,11,22,1.30
2019,02,06,11,23,1.30
2019,02,06,11,24,1.20
2019,02,06,11,25,1.20
2019,02,06,11,26,1.20
2019,02,06,11,27,1.20
2019,02,06,11,28,1.20
2019,02,06,11,29,1.20
2019,02,06,11,30,1.30
2019,02,06,11,31,1.30
2019,02,06,11,32,1.30
2019,02,06,11,33,1.30
2019,02,06,11,34,1.30
2019,02,06,11,35,1.20
2019,02,06,11,36,1.20
2019,02,06,11,37,1.20
2019,02,06,11,38,1.20
2019,02,06,11,39,1.30
2019,02,06,11,40,1.30
2019,02,06,11,41,1.30
2019,02,06,11,42,1.30
2019,02,06,11,43,1.30
2019,02,06,11,44,1.30
2019,02,06,11,45,1.30
2019,02,06,11,46,1.30
2019,02,06,11,47,1.30
2019,02,06,11,48,1.40
2019,02,06,11,49,1.30
2019,02,06,11,50,1.30
2019,02,06,11,51,1.30
2019,02,06,11,52,1.40
2019,02,06,11,53,1.40
2019,02,06,11,54,1.50
2019,02,06,11,55,1.50
2019,02,06,11,56,1.50
2019,02,06,11,57,1.50
2019,02,06,11,58,1.50
2019,02,06,11,59,1.40
2019,02,06,12,00,1.40
2019,02,06,12,01,1.40
2019,02,06,12,02,1.30
2019,02,06,12,03,1.30
2019,02,06,12,04,1.40
2019,02,06,12,05,1.40
2019,02,06,12,06,1.40
2019,02,06,12,07,1.50
2019,02,06,12,08,1.50
2019,02,06,12,09,1.50
2019,02,06,12,10,1.50
2019,02,06,12,11,1.50
2019,02,06,12,12,1.50
2019,02,06,12,13,1.50
2019,02,06,12,14,1.50
2019,02,06,12,15,1.50
2019,02,06,12,16,1.60
2019,02,06,12,17,1.60
2019,02,06,12,18,1.70
2019,02,06,12,19,1.70
2019,02,06,12,20,1.80
2019,02,06,12,21,1.90
2019,02,06,12,22,1.90
2019,02,06,12,23,1.90
2019,02,06,12,24,1.90
2019,02,06,12,25,1.90
2019,02,06,12,26,1.80
2019,02,06,12,27,1.80
2019,02,06,12,28,1.70
2019,02,06,12,29,1.70
2019,02,06,12,30,1.60
2019,02,06,12,31,1.60
2019,02,06,12,32,1.60
2019,02,06,12,33,1.60
2019,02,06,12,34,1.60
2019,02,06,12,35,1.60
2019,02,06,12,36,1.60
2019,02,06,12,37,1.70
2019,02,06,12,38,1.70
2019,02,06,12,39,1.70
2019,02,06,12,40,1.70
2019,02,06,12,41,1.70
2019,02,06,12,42,1.70
2019,02,06,12,43,1.70
2019,02,06,12,44,1.70
2019,02,06,12,45,1.80
2019,02,06,12,46,1.80
2019,02,06,12,47,1.80
2019,02,06,12,48,1.80
2019,02,06,12,49,1.80
2019,02,06,12,50,1.80
2019,02,06,12,51,1.90
2019,02,06,12,52,1.80
2019,02,06,12,53,1.80
2019,02,06,12,54,1.70
2019,02,06,12,55,1.70
2019,02,06,12,56,1.60
2019,02,06,12,57,1.60
2019,02,06,12,58,1.60
2019,02,06,12,59,1.70
2019,02,06,13,00,1.70
2019,02,06,13,01,1.70
2019,02,06,13,02,1.70
2019,02,06,13,03,1.70
2019,02,06,13,04,1.60
2019,02,06,13,05,1.60
2019,02,06,13,06,1.60
2019,02,06,13,07,1.60
2019,02,06,13,08,1.60
2019,02,06,13,09,1.60
2019,02,06,13,10,1.60
2019,02,06,13,11,1.70
2019,02,06,13,12,1.70
2019,02,06,13,13,1.70
2019,02,06,13,14,1.70
2019,02,06,13,15,1.70
2019,02,06,13,16,1.80
2019,02,06,13,17,1.80
2019,02,06,13,18,1.80
2019,02,06,13,19,1.80
2019,02,06,13,20,1.80
2019,02,06,13,21,1.80
2019,02,06,13,22,1.80
2019,02,06,13,23,1.80
2019,02,06,13,24,1.80
2019,02,06,13,25,1.80
2019,02,06,13,26,1.80
2019,02,06,13,27,1.80
2019,02,06,13,28,1.80
2019,02,06,13,29,1.80
2019,02,06,13,30,1.70
2019,02,06,13,31,1.70
2019,02,06,13,32,1.80
2019,02,06,13,33,1.80
2019,02,06,13,34,1.80
2019,02,06,13,35,1.80
2019,02,06,13,36,1.80
2019,02,06,13,37,1.70
2019,02,06,13,38,1.70
2019,02,06,13,39,1.70
2019,02,06,13,40,1.70
2019,02,06,13,41,1.70
2019,02,06,13,42,1.80
2019,02,06,13,43,1.80
2019,02,06,13,44,1.90
2019,02,06,13,45,1.90
2019,02,06,13,46,1.90
2019,02,06,13,47,1.80
2019,02,06,13,48,1.80
2019,02,06,13,49,1.80
2019,02,06,13,50,1.80
2019,02,06,13,51,1.80
2019,02,06,13,52,1.80
2019,02,06,13,53,1.80
2019,02,06,13,54,1.80
2019,02,06,13,55,1.80
2019,02,06,13,56,1.80
2019,02,06,13,57,1.80
2019,02,06,13,58,1.80
2019,02,06,13,59,1.80
2019,02,06,14,00,1.80
2019,02,06,14,01,1.80
2019,02,06,14,02,1.80
2019,02,06,14,03,1.90
2019,02,06,14,04,1.90
2019,02,06,14,05,1.90
2019,02,06,14,06,1.90
2019,02,06,14,07,1.90
2019,02,06,14,08,1.90
2019,02,06,14,09,1.90
2019,02,06,14,10,2.00
2019,02,06,14,11,2.00
2019,02,06,14,12,2.00
2019,02,06,14,13,2.00
2019,02,06,14,14,2.00
2019,02,06,14,15,2.10
2019,02,06,14,16,2.10
2019,02,06,14,17,2.20
2019,02,06,14,18,2.20
2019,02,06,14,19,2.30
2019,02,06,14,20,2.30
2019,02,06,14,21,2.20
2019,02,06,14,22,2.20
2019,02,06,14,23,2.10
2019,02,06,14,24,2.10
2019,02,06,14,25,2.10
2019,02,06,14,26,2.10
2019,02,06,14,27,2.00
2019,02,06,14,28,2.00
2019,02,06,14,29,2.00
2019,02,06,14,30,1.90
2019,02,06,14,31,1.90
2019,02,06,14,32,2.00
2019,02,06,14,33,2.10
2019,02,06,14,34,2.10
2019,02,06,14,35,2.20
2019,02,06,14,36,2.20
2019,02,06,14,37,2.30
2019,02,06,14,38,2.30
2019,02,06,14,39,2.30
2019,02,06,14,40,2.30
2019,02,06,14,41,2.20
2019,02,06,14,42,2.20
2019,02,06,14,43,2.20
2019,02,06,14,44,2.20
2019,02,06,14,45,2.20
2019,02,06,14,46,2.20
2019,02,06,14,47,2.20
2019,02,06,14,48,2.20
2019,02,06,14,49,2.20
2019,02,06,14,50,2.20
2019,02,06,14,51,2.20
2019,02,06,14,52,2.10
2019,02,06,14,53,2.10
2019,02,06,14,54,2.00
2019,02,06,14,55,2.10
2019,02,06,14,56,2.00
2019,02,06,14,57,2.10
2019,02,06,14,58,2.10
2019,02,06,14,59,2.10
2019,02,06,15,00,2.10
2019,02,06,15,01,2.20
2019,02,06,15,02,2.20
2019,02,06,15,03,2.30
2019,02,06,15,04,2.30
2019,02,06,15,05,2.40
2019,02,06,15,06,2.40
2019,02,06,15,07,2.40
2019,02,06,15,08,2.40
2019,02,06,15,09,2.50
2019,02,06,15,10,2.40
2019,02,06,15,11,2.50
2019,02,06,15,12,2.40
2019,02,06,15,13,2.40
2019,02,06,15,14,2.40
2019,02,06,15,15,2.30
2019,02,06,15,16,2.30
2019,02,06,15,17,2.30
2019,02,06,15,18,2.20
2019,02,06,15,19,2.20
2019,02,06,15,20,2.20
2019,02,06,15,21,2.20
2019,02,06,15,22,2.30
2019,02,06,15,23,2.30
2019,02,06,15,24,2.20
2019,02,06,15,25,2.20
2019,02,06,15,26,2.20
2019,02,06,15,27,2.20
2019,02,06,15,28,2.20
2019,02,06,15,29,2.20
2019,02,06,15,30,2.10
2019,02,06,15,31,2.10
2019,02,06,15,32,2.10
2019,02,06,15,33,2.10
2019,02,06,15,34,2.10
2019,02,06,15,35,2.10
2019,02,06,15,36,2.10
2019,02,06,15,37,2.10
2019,02,06,15,38,2.10
2019,02,06,15,39,2.10
2019,02,06,15,40,2.10
2019,02,06,15,41,2.00
2019,02,06,15,42,2.10
2019,02,06,15,43,2.10
2019,02,06,15,44,2.10
2019,02,06,15,45,2.20
2019,02,06,15,46,2.20
2019,02,06,15,47,2.20
2019,02,06,15,48,2.30
2019,02,06,15,49,2.30
2019,02,06,15,50,2.30
2019,02,06,15,51,2.30
2019,02,06,15,52,2.30
2019,02,06,15,53,2.30
2019,02,06,15,54,2.30
2019,02,06,15,55,2.30
2019,02,06,15,56,2.30
2019,02,06,15,57,2.30
2019,02,06,15,58,2.30
2019,02,06,15,59,2.20
2019,02,06,16,00,2.20
2019,02,06,16,01,2.20
2019,02,06,16,02,2.20
2019,02,06,16,03,2.20
2019,02,06,16,04,2.20
2019,02,06,16,05,2.20
2019,02,06,16,06,2.10
2019,02,06,16,07,2.10
2019,02,06,16,08,2.10
2019,02,06,16,09,2.10
2019,02,06,16,10,2.10
2019,02,06,16,11,2.10
2019,02,06,16,12,2.10
2019,02,06,16,13,2.10
2019,02,06,16,14,2.10
2019,02,06,16,15,2.10
2019,02,06,16,16,2.10
2019,02,06,16,17,2.10
2019,02,06,16,18,2.10
2019,02,06,16,19,2.10
2019,02,06,16,20,2.10
2019,02,06,16,21,2.00
2019,02,06,16,22,2.00
2019,02,06,16,23,2.00
2019,02,06,16,24,2.00
2019,02,06,16,25,2.10
2019,02,06,16,26,2.10
2019,02,06,16,27,2.10
2019,02,06,16,28,2.10
2019,02,06,16,29,2.10
2019,02,06,16,30,2.10
2019,02,06,16,31,2.10
2019,02,06,16,32,2.10
2019,02,06,16,33,2.10
2019,02,06,16,34,2.10
2019,02,06,16,35,2.10
2019,02,06,16,36,2.10
2019,02,06,16,37,2.10
2019,02,06,16,38,2.10
2019,02,06,16,39,2.00
2019,02,06,16,40,2.00
2019,02,06,16,41,2.00
2019,02,06,16,42,1.90
2019,02,06,16,43,1.90
2019,02,06,16,44,1.90
2019,02,06,16,45,1.90
2019,02,06,16,46,1.90
2019,02,06,16,47,1.90
2019,02,06,16,48,1.80
2019,02,06,16,49,1.80
2019,02,06,16,50,1.80
2019,02,06,16,51,1.80
2019,02,06,16,52,1.80
2019,02,06,16,53,1.80
2019,02,06,16,54,1.80
2019,02,06,16,55,1.80
2019,02,06,16,56,1.80
2019,02,06,16,57,1.80
2019,02,06,16,58,1.80
2019,02,06,16,59,1.80
2019,02,06,17,00,1.80
2019,02,06,17,01,1.80
2019,02,06,17,02,1.80
2019,02,06,17,03,1.80
2019,02,06,17,04,1.80
2019,02,06,17,05,1.80
2019,02,06,17,06,1.80
2019,02,06,17,07,1.80
2019,02,06,17,08,1.80
2019,02,06,17,09,1.80
2019,02,06,17,10,1.80
2019,02,06,17,11,1.80
2019,02,06,17,12,1.80
2019,02,06,17,13,1.70
2019,02,06,17,14,1.70
2019,02,06,17,15,1.70
2019,02,06,17,16,1.70
2019,02,06,17,17,1.70
2019,02,06,17,18,1.70
2019,02,06,17,19,1.60
2019,02,06,17,20,1.60
2019,02,06,17,21,1.60
2019,02,06,17,22,1.60
2019,02,06,17,23,1.60
2019,02,06,17,24,1.50
2019,02,06,17,25,1.50
2019,02,06,17,26,1.50
2019,02,06,17,27,1.40
2019,02,06,17,28,1.40
2019,02,06,17,29,1.40
2019,02,06,17,30,1.40
2019,02,06,17,31,1.30
2019,02,06,17,32,1.30
2019,02,06,17,33,1.30
2019,02,06,17,34,1.20
2019,02,06,17,35,1.20
2019,02,06,17,36,1.20
2019,02,06,17,37,1.20
2019,02,06,17,38,1.10
2019,02,06,17,39,1.10
2019,02,06,17,40,1.00
2019,02,06,17,41,1.00